Other Surface Observations
Issued by NWS

Home | Current Version | Previous Version | Text Only | Print | Product List | Glossary On
Versions: 1 2 3 4 5 6 7 8 9 10 11 12 13 14 15 16 17 18 19 20 21 22 23 24 25 26 27 28 29 30 31 32 33 34 35 36 37 38 39 40 41 42 43 44 45 46 47 48 49 50
000
SXUS52 KTAE 240506
OSOTAE
OSOTAE
North Florida/South Alabama/Southwest Georgia Weather Roundup
National Weather Service Tallahassee Florida
100 AM EDT SAT JUN 24 2017

Note: "fair" indicates few or no clouds below 12,000 feet with no
significant weather and/or obstructions to visibility.

!FLZ017-115-028-034-025-240600
...North Florida...

CITY           SKY/WX    TMP DP  RH WIND       PRES   REMARKS
TALLAHASSEE    CLEAR     77  76  96 S3        30.02F
APALACHICOLA   CLEAR     81  78  91 SW7       30.03F
PERRY          FOG       74  74  97 CALM      30.05F VSB 1/2
CROSS CITY     CLEAR     73  70  88 CALM      30.05F
JACKSONVILLE   CLEAR     78  75  90 SW3       30.05S
$$

!FLZ112-006-005-002-011-240600
...Florida Panhandle...

CITY           SKY/WX    TMP DP  RH WIND       PRES   REMARKS
MARIANNA       CLEAR     76  74  93 S8        30.00F
BONIFAY        NOT AVBL
PANAMA CITY NW FAIR      78  75  90 SE6       30.00F
TYNDALL AFB    PTCLDY    80  74  83 SW7       30.02F
TYND DRONE APT FAIR      79  74  84 S10       30.02F
DE FUNIAK SPR  FAIR      75  75  99 S5        30.02S FOG
EGLIN AFB      MOCLDY    80  76  87 SW6       30.01R
DESTIN         CLOUDY    83  82  97 S10       30.01R HX  98
HURLBURT       DRIZZLE   81  75  83 S10       30.00R
CRESTVIEW      CLOUDY    77  75  93 SW3       30.03R
PENSACOLA      MOCLDY    82  76  81 S9        30.02R
$$

!ALZ063-066-240600
...South Alabama...

CITY           SKY/WX    TMP DP  RH WIND       PRES   REMARKS
DOTHAN         CLEAR     76  75  97 SW8       30.04S
OZARK CAIRNS   CLEAR     76  74  93 S6        30.01S
FT RUCKER HELI CLEAR     76  74  95 CALM      30.01R
RUCKER HELI 3  FAIR      76  74  94 SW6       30.01R
RUCKER HELI 2  FAIR      75  74  96 CALM      30.00S
FLORALA APT    MOCLDY    76  73  91 SW3       30.03S
ANDALUSIA      CLEAR     79  74  84 VRB3      30.01S
TROY           PTCLDY    73  73 100 CALM      30.01R
EUFALA         FAIR      78  72  81 SW3       29.99R
MOBILE         MOCLDY    80  76  87 S8        30.01R
$$

!GAZ120>161-240600
...Southwest and South Central Georgia...

CITY           SKY/WX    TMP DP  RH WIND       PRES   REMARKS
THOMASVILLE    FAIR      77  77 100 SW5       30.04F
BAINBRIDGE     CLEAR     82  77  83 S3        30.02F HX  91
MOODY AFB      CLEAR     77  73  88 S6        30.01F
VALDOSTA       CLEAR     74  73  97 S3        30.03F
MOULTRIE       CLEAR     77  73  88 S3        30.03F
BLAKELY        CLEAR     77  72  83 SW5       30.00F
ALBANY         CLEAR     78  71  79 S7        30.02F
TIFTON         FAIR      78  76  96 SW3       30.02F
FITZGERALD     FAIR      78  77  95 S7        30.04F
CORDELE        FAIR      83  76  78 SW7       30.01S HX  91
AMERICUS       FAIR      77  66  69 W6        30.02R
HOMERVILLE     FAIR      77  73  88 SW5       30.04F
$$

!GMZ750-755-770-775-240600
...Coastal and Buoy Obs...

STATION/POSITION TIME  TEMP    WIND        PRES    VSBY  WAVE
                       AIR SEA DIR/SP/G                  HT/PER
                 (UTC) (F)     (DEG/KT/KT) (MB)    (MI)  (FT/S)
KEATON BEACH     0500   82     240/  8/  9 1017.0F
CEDAR KEY        0400   82     300/  4/  5 1018.3R
C TOWER          0500   81     210/  7/  7 1017.6F
APALACHICOLA BUO 0350   81 83  250/  2/  4 1017.6          3/ 7
PANAMA CITY BUOY 0450   81 81  180/  6/  8 1016.7F         4/ 6
MOBILE BUOY      0450   81 82  170/ 10/ 14 1016.0R         4/ 6
ORANGE BCH AL BU 0350   81 81  180/ 12/ 16 1015.3          3/ 6
$$




USA.gov is the U.S. government's official web portal to all federal, state and local government web resources and services.